Location: Newark
(44.5869°N, 123.1150°W)
Time: 19:36:55
(UTC+00:00)

N. Korean satellite - Pass Details

Date: 25 September 2020
Orbit: 452 x 505 km, 97.2° (Epoch: 28 October)

Event Time Altitude Azimuth Distance (km) Brightness Sun altitude
Rises 13:09:42 0° 23° (NNE) 2,595 10.7 -10.4°
Reaches altitude 10° 13:12:01 10° 35° (NE) 1,698 10.0 -10.0°
Maximum altitude 13:15:11 27° 95° (E) 961 9.0 -9.5°
Drops below altitude 10° 13:18:17 10° 156° (SSE) 1,659 9.5 -8.9°
Sets 13:20:32 0° 168° (SSE) 2,523 10.3 -8.5°
